Weather History for Memphis, TN

Change the Weather History Date:

Sunday, May 6, 2012

  Actual Average Record
Temperature  
Mean Temperature 81 °F 69 °F  
Max Temperature 92 °F 79 °F 95 °F (1952)
Min Temperature 70 °F 59 °F 41 °F (1944)
Degree Days  
Heating Degree Days 0 1  
Month to date heating degree days 0 7  
Since 1 July heating degree days 2171 2952  
Cooling Degree Days 16 5  
Month to date cooling degree days 91 27  
Year to date cooling degree days 313 122  
Growing Degree Days 32 (Base 50)    
Moisture  
Dew Point 67 °F    
Average Humidity 66    
Maximum Humidity 87    
Minimum Humidity 44    
Precipitation  
Precipitation 0.13 in 0.19 in 3.07 in (1907)
Month to date precipitation 0.13 1.13  
Year to date precipitation 10.28 20.16  
Snow  
Snow 0.00 in 0.00 in - ()
Month to date snowfall 0.0 0.0  
Since 1 July snowfall 1.4 3.8  
Snow Depth 0.00 in    
Sea Level Pressure  
Sea Level Pressure 29.90 in    
Wind  
Wind Speed 8 mph (SSE)    
Max Wind Speed 25 mph    
Max Gust Speed 31 mph    
Visibility 10 miles    
Events Rain , Thunderstorm    
T = Trace of Precipitation, MM = Missing Value Source: NWS Daily Summary

Daily Weather History Graph

Daily Weather History Graph

Search for Another Location

Airport:

Trip Planner

Search our weather history database for the weather conditions in past years. The results will help you decide how hot, cold, wet, or windy it might be!

Date:

Astronomy

May. 06, 2012 Rise Set
Actual Time 6:03 AM CDT 7:50 PM CDT
Civil Twilight 5:36 AM CDT 8:17 PM CDT
Nautical Twilight 5:02 AM CDT 8:50 PM CDT
Astronomical Twilight 4:27 AM CDT 9:26 PM CDT
Moon 8:52 PM CDT (5/6) 6:15 AM CDT (5/6)
Length of Visible Light 14h 41m
Length of Day
13h 46m
Full, 100% of the Moon is Illuminated
May 6
Full
May 12
Last Quarter
May 20
New
May 28
First Quarter
Jun 4
Full

Hourly Weather History & Observations

Time (CDT) Temp. Heat Index Dew Point Humidity Pressure Visibility Wind Dir Wind Speed Gust Speed Precip Events Conditions
12:54 AM 75.9 °F - 69.1 °F 79% 29.92 in 10.0 mi Calm Calm - N/A   Mostly Cloudy
1:54 AM 75.9 °F - 69.1 °F 79% 29.91 in 10.0 mi Calm Calm - N/A   Scattered Clouds
2:54 AM 73.0 °F - 68.0 °F 84% 29.90 in 10.0 mi SSW 3.5 mph - N/A   Clear
3:54 AM 73.0 °F - 68.0 °F 84% 29.91 in 10.0 mi Calm Calm - N/A   Partly Cloudy
4:54 AM 73.0 °F - 69.1 °F 87% 29.91 in 10.0 mi Calm Calm - N/A   Partly Cloudy
5:54 AM 73.9 °F - 69.1 °F 85% 29.91 in 10.0 mi East 4.6 mph - N/A   Partly Cloudy
6:54 AM 75.0 °F - 69.1 °F 82% 29.93 in 8.0 mi NNE 4.6 mph - N/A   Scattered Clouds
7:54 AM 78.1 °F - 69.1 °F 74% 29.95 in 10.0 mi ESE 9.2 mph - N/A   Scattered Clouds
8:54 AM 80.1 °F 82.1 °F 66.0 °F 62% 29.96 in 10.0 mi SE 10.4 mph - N/A   Scattered Clouds
9:54 AM 84.0 °F 85.8 °F 64.9 °F 53% 29.96 in 10.0 mi SE 11.5 mph 17.3 mph N/A   Clear
10:54 AM 86.0 °F 88.8 °F 66.9 °F 53% 29.96 in 10.0 mi SSE 11.5 mph - N/A   Scattered Clouds
11:54 AM 88.0 °F 92.1 °F 69.1 °F 53% 29.94 in 10.0 mi SSE 10.4 mph - N/A   Scattered Clouds
12:54 PM 91.0 °F 94.3 °F 66.9 °F 45% 29.92 in 10.0 mi Variable 6.9 mph - N/A   Scattered Clouds
1:54 PM 91.9 °F 95.4 °F 66.9 °F 44% 29.91 in 10.0 mi South 12.7 mph 18.4 mph N/A   Scattered Clouds
2:54 PM 91.0 °F 94.3 °F 66.9 °F 45% 29.89 in 10.0 mi SSW 5.8 mph - N/A   Scattered Clouds
3:54 PM 90.0 °F 92.4 °F 66.0 °F 45% 29.86 in 10.0 mi South 6.9 mph - N/A   Partly Cloudy
4:54 PM 91.0 °F 94.3 °F 66.9 °F 45% 29.85 in 10.0 mi South 11.5 mph - N/A   Scattered Clouds
5:54 PM 89.1 °F 91.0 °F 64.9 °F 45% 29.85 in 10.0 mi SSW 8.1 mph - N/A   Mostly Cloudy
6:54 PM 88.0 °F 90.3 °F 66.0 °F 48% 29.83 in 10.0 mi SSW 8.1 mph - N/A   Scattered Clouds
7:54 PM 87.1 °F 89.9 °F 66.9 °F 51% 29.85 in 10.0 mi South 8.1 mph - N/A   Scattered Clouds
8:54 PM 84.0 °F 87.0 °F 68.0 °F 58% 29.85 in 10.0 mi South 8.1 mph - N/A   Scattered Clouds
9:54 PM 82.9 °F 84.6 °F 64.9 °F 54% 29.86 in 10.0 mi South 11.5 mph - N/A   Mostly Cloudy
10:52 PM 75.2 °F - 64.4 °F 69% 29.90 in 10.0 mi NE 19.6 mph 24.2 mph N/A Thunderstorm Thunderstorm
10:54 PM 75.0 °F - 64.0 °F 69% 29.88 in 10.0 mi NE 19.6 mph 25.3 mph N/A Thunderstorm Thunderstorm
11:01 PM 73.4 °F - 66.2 °F 78% 29.90 in 6.0 mi NNE 24.2 mph 31.1 mph N/A Rain , Thunderstorm Heavy Thunderstorms and Rain
11:54 PM 71.1 °F - 66.0 °F 84% 29.90 in 10.0 mi ENE 10.4 mph - 0.13 in Thunderstorm Thunderstorm